Skip Page Navigation
NASA JPL Caltech
NASA Logo - Jet Propulsion Laboratory + View the NASA Portal
+ Center for Near-Earth Object Studies
JPL Home Earth Solar System Stars & Galaxies Technology
JPL Solar System Dynamics
BODIES ORBITS EPHEMERIDES TOOLS PHYSICAL DATA DISCOVERY FAQ SITE MAP
IMPORTANT: The SSD Announcement email list is now available. Major changes are coming in the near future, including possible hostname and/or URL changes. To be notified of such changes, subscribe to this email list.

Please visit this page for more details.


JPL Small-Body Database Browser
Search: [ help ]  
359760 (2011 UW102)
Classification: Main-belt Asteroid          SPK-ID: 2359760
Ephemeris | Orbit Diagram | Orbital Elements | Mission Design | Physical Parameters | Discovery Circumstances | Close-Approach Data ]

[ show orbit diagram ]
Orbital Elements at Epoch 2458600.5 (2019-Apr-27.0) TDB
Reference: JPL 10 (heliocentric ecliptic J2000)
 Element Value Uncertainty (1-sigma)   Units 
e .1890996049307128 1.3402e-07  
a 2.98553390535936 4.74e-08 au
q 2.420970623348657 4.0666e-07 au
i 10.85047323941356 1.1715e-05 deg
node 210.7653942576139 2.4322e-05 deg
peri 164.3492190727181 2.839e-05 deg
M 186.8755910554934 1.5241e-05 deg
tp 2459506.623181673970
(2021-Oct-19.12318167)
9.0496e-05 TDB
period 1884.21925822829
5.16
4.4872e-05
1.229e-07
d
yr
n .1910605670905328 4.5501e-09 deg/d
Q 3.550097187370063 5.6363e-08 au
  Orbit Determination Parameters
   # obs. used (total)      305  
   data-arc span      5478 days (15.00 yr)  
   first obs. used      2004-04-25  
   last obs. used      2019-04-25  
   planetary ephem.      DE431  
   SB-pert. ephem.      SB431-N16  
   condition code      0  
   norm. resid. RMS      .53721  
   source      ORB  
   producer      Otto Matic  
   solution date      2019-Jul-14 14:24:17  

Additional Information
 Earth MOID = 1.42393 au 
 Jupiter MOID = 1.92407 au 
 T_jup = 3.204 
[ show covariance matrix ]

Ephemeris | Orbit Diagram | Orbital Elements | Mission Design | Physical Parameters | Discovery Circumstances | Close-Approach Data ]

Physical Parameter Table
Parameter Symbol Value Units Sigma Reference Notes
absolute magnitude H 15.8   n/a MPO437519  
rotation period rot_per 0.58 h n/a LCDB (Rev. 2019-January); Warner et al., 2009 lower-limit; Incomplete or inconclusive result.
Published Reference List:
[Erasmus, N.; McNeill, A.; Mommert, M.; Trilling, D.E.; et al. (2018) Ap. J. Suppl. 237, A19.]

359760 (2011 UW102)          Discovered 2009-Apr-22 by Mt. Lemmon Survey at Mount Lemmon
Reference: 20130327/Numbers.arcLast Updated: 2013-03-29

[ hide close-approach data ]
Close-Approach Data   ...sorted by Date/Time (TDB)
Date/Time (TDB) Time Uncertainty
(days_HH:MM)
Body Nominal Distance (au) Minimum Distance (au) Maximum Distance (au) V-relative (km/s) V-infinity (km/s) JD (TDB) Time Uncertainty (minutes) Semi-major axis (km) Semi-minor axis (km) range-LOV angle (deg) N-sigma BP Orbit Ref. Reference Modified
1910-Dec-20 13:07 00:07 Jupiter 1.93253619378064 1.93253483017343 1.93253755741102 3.2887948126054 3.15270989785603 2419026.046245676 7.38845429888383 669.565076356113 51.1424950144087 -88.1378329339705 1135749.68390685 T 10 CATAB v2.0e-lin.ifort 2019-Jul-14 14:24:20 2019-Jul-14 14:24
1993-May-24 00:45 00:02 Jupiter 1.94035766829225 1.94035642451821 1.94035891206595 3.07985239272028 2.93469464066195 2449131.530946987 1.70477173722186 159.512345953428 52.8500426624872 89.7890544776219 1038952.37871161 T 10 CATAB v2.0e-lin.ifort 2019-Jul-14 14:24:20 2019-Jul-14 14:24
2030-Jan-28 05:50 00:01 Jupiter 1.96763693399826 1.96763593672776 1.96763793126887 3.40328919886011 3.27435845602335 2462529.743354436 1.0060073694811 132.95597308264 38.6070905980564 81.5964620369396 1262403.96070002 T 10 CATAB v2.0e-lin.ifort 2019-Jul-14 14:24:20 2019-Jul-14 14:24
2112-Jul-04 03:22 00:07 Jupiter 1.91921172789148 1.91921052322744 1.9192129325553 3.25633932264836 3.11786277326853 2492636.640471609 6.66750376348712 614.539157445483 52.3028272048538 89.325663926143 1102815.19904454 T 10 CATAB v2.0e-lin.ifort 2019-Jul-14 14:24:20 2019-Jul-14 14:24
2194-Dec-07 02:00 00:13 Jupiter 1.9562423784532 1.95623930410086 1.95624545297701 3.11723474598204 2.97509387690103 2522742.583154204 12.6605965349658 1038.62175563363 55.69732199911 81.0644921124686 1069822.84840206 T 10 CATAB v2.0e-lin.ifort 2019-Jul-14 14:24:20 2019-Jul-14 14:24

Alternate Designations
 2011 UW102 = 2009 HU63 
Ephemeris | Orbit Diagram | Orbital Elements | Mission Design | Physical Parameters | Discovery Circumstances | Close-Approach Data ]
ABOUT SSD CREDITS/AWARDS PRIVACY/COPYRIGHT GLOSSARY LINKS
FirstGov 2020-Jan-27 22:47 UT
(server date/time)  
NASA Home Page
Site Manager:   Ryan S. Park
Webmaster  Alan B. Chamberlin